Voltar ao catálogo

COSMOS 1275 DEB

AtivoPO
NORAD 13464·DEBRIS·🇷🇺 Russia

Lançado Jun 4, 1981 de Plesetsk Cosmodrome

Loading…

Próximas Passagens (próximas 24 horas)

TLE

AtualizadoSource: Space-Track

Época: Sep 14, 2026, 04:13 UTC

1 13464U 81053FL  26257.17623191  .00003143  00000-0  91775-3 0  9990
2 13464  82.9074 333.7083 0025874 120.0929 268.1654 14.43648551269859

Acompanhe COSMOS 1275 DEB em tempo real com AllMySat

Download on the App Store